Temp
4 4 4 4 4 5 5 5 6 6 7 7 6 6 7 7 7 7 8 8 8 9
3 3 3 3 3 3 3 3 4 5 5 5 5 5 5 6 6 6 6 7 8 8
2 2 2 3 2 3 3 3 3 3 3 4 4 4 4 4 5 5 5 6 6 7
2 2 2 2 2 2 2 2 2 2 2 2 2 3 3 3 4 4 4 5 5 5
1 2 2 2 1 1 1 2 2 2 2 1 1 2 2 2 3 3 3 4 4 4
-0 -0 -0 -0 0 1 1 1 1 0 1 2 2 1 1 1 1 2 2 2 3 3
-0 -1 -1 -1 -1 -2 -1 -1 -0 0 -0 -0 -0 1 2 1 1 0 1 1 1 2
-0 -1 -1 -2 -2 -3 -3 -3 -3 -2 -1 -1 -1 -1 -1 0 0 -0 -1 -0 0 1
0 -0 -1 -2 -3 -3 -3 -4 -4 -4 -4 -3 -2 -1 -2 -2 -2 -1 -1 -1 -1 -1
-2 -2 -2 -3 -3 -4 -5 -5 -5 -5 -5 -5 -4 -4 -3 -2 -2 -2 -2 -2 -2 -1
-3 -3 -3 -4 -4 -5 -6 -6 -6 -6 -6 -6 -6 -5 -4 -3 -3 -3 -3 -2 -2 -2
-4 -5 -5 -6 -6 -6 -7 -7 -8 -8 -8 -8 -7 -7 -6 -5 -5 -4 -3 -3 -3 -2
-8 -8 -9 -9 -9 -9 -9 -9 -9 -9 -9 -9 -9 -9 -8 -7 -6 -5 -4 -4 -3 -3
-12 -12 -12 -12 -12 -12 -12 -12 -12 -12 -11 -11 -11 -11 -10 -9 -7 -6 -5 -4 -4 -3
Height
794 785 787 783 783 783 782 781 780 778 777 776 779 780 781 781 781 781 781 782 782 782
790 789 790 782 785 785 784 781 778 777 775 774 773 775 776 776 776 776 776 777 778 776
795 797 793 782 784 784 783 781 778 776 773 771 770 770 771 771 771 770 771 771 772 771
798 799 791 787 789 785 783 782 780 776 773 771 769 767 767 766 765 764 765 765 764 764
795 792 791 790 791 789 782 780 778 775 771 771 766 764 765 762 758 758 758 759 758 756
794 791 793 791 791 790 783 779 775 776 772 767 764 760 760 760 752 752 753 751 750 749
791 791 790 788 785 785 781 777 774 772 768 764 762 760 758 752 747 746 745 744 741 741
791 789 785 782 779 778 774 771 768 766 763 760 756 754 751 750 744 740 737 735 734 733
790 783 781 780 778 773 769 766 762 759 757 751 749 745 744 744 739 733 730 726 724 722
786 783 781 778 772 767 763 760 755 750 747 742 738 737 737 735 731 725 721 717 714 712
781 778 774 770 766 761 757 751 747 743 739 734 729 728 727 725 721 715 710 707 704 702
776 772 768 763 758 754 751 746 741 736 729 726 718 717 717 716 711 704 698 695 692 690
771 768 763 759 753 748 744 737 732 724 720 715 709 704 704 705 702 693 687 682 679 677
765 761 757 751 747 742 736 730 722 716 708 704 700 691 690 689 689 683 676 670 665 663
Wind_Speed
22 25 23 21 17 14 13 12 11 11 13 16 21 25 27 29 34 38 42 44 37 41
26 24 21 21 21 20 19 17 15 14 14 14 17 22 25 28 30 34 37 42 43 39
22 21 21 24 23 23 22 21 20 17 15 15 15 18 22 27 30 30 34 35 40 44
17 18 22 23 22 22 22 22 21 20 19 17 16 16 20 24 27 32 33 34 36 38
16 19 20 23 23 23 23 23 23 23 21 19 16 16 20 22 23 29 34 36 36 38
16 16 18 20 20 22 24 24 23 23 22 22 22 19 18 21 22 27 32 35 37 38
24 24 24 25 25 26 25 24 24 26 26 25 23 20 21 22 22 25 31 34 35 37
28 29 30 32 32 32 31 30 29 29 29 30 29 27 23 24 24 26 28 30 33 37
31 34 36 35 34 34 35 35 32 33 32 34 33 31 24 25 28 29 31 31 30 31
29 31 33 35 38 39 34 35 35 35 33 32 34 30 30 28 30 32 32 32 32 31
28 30 33 34 35 37 35 36 35 35 35 35 38 32 32 33 33 34 35 35 36 34
27 30 33 33 34 35 34 35 36 37 38 36 40 39 36 34 34 35 37 36 37 37
27 31 32 33 34 35 34 37 37 40 39 40 44 46 45 41 36 36 37 38 36 37
28 28 31 34 34 35 37 38 40 41 44 43 43 47 47 45 41 38 37 37 36 34
Wind_Direction
37 39 36 33 21 5 346 333 323 329 291 279 267 256 255 251 243 238 234 231 231 231
31 32 30 33 25 15 8 353 331 308 299 297 284 266 259 256 253 248 243 240 236 236
28 23 22 28 21 17 12 5 358 347 329 306 291 281 273 263 257 255 249 246 244 241
24 19 21 20 11 9 8 5 3 357 348 334 317 295 282 275 265 259 256 251 248 247
11 8 6 3 358 357 357 358 355 354 352 344 334 318 299 285 275 265 260 258 254 249
353 352 344 340 340 340 343 342 343 340 341 342 339 330 310 292 283 275 268 265 262 258
339 335 333 328 328 328 331 329 327 327 325 327 326 324 319 310 297 283 275 269 264 261
330 329 329 328 326 322 323 323 318 315 314 314 315 313 310 306 299 292 287 280 271 265
320 322 321 320 318 316 316 316 313 308 306 306 304 305 297 290 290 289 286 281 275 269
308 307 307 309 310 308 307 308 307 305 301 294 293 290 290 285 283 281 278 276 275 272
299 300 301 299 295 295 299 300 298 295 292 292 288 284 281 281 279 276 273 272 271 266
303 300 299 296 293 291 292 289 290 290 290 287 285 286 284 282 278 274 270 267 265 264
303 301 300 297 295 294 292 288 286 285 283 283 283 284 284 283 278 272 267 266 263 258
304 302 299 297 294 293 291 288 285 283 282 281 279 281 283 283 279 271 269 264 262 257